Weather History for Farmville, VA

Change the Weather History Date:

Wednesday, February 13, 2013

  Actual Average Record
Temperature  
Mean Temperature 42 °F -  
Max Temperature 50 °F 47 °F 91 °F (1997)
Min Temperature 35 °F 25 °F 6 °F (1979)
Degree Days  
Heating Degree Days 22    
Moisture  
Dew Point 33 °F    
Average Humidity 70    
Maximum Humidity 100    
Minimum Humidity 34    
Precipitation  
Precipitation 0.06 in - - ()
Sea Level Pressure  
Sea Level Pressure 29.76 in    
Wind  
Wind Speed 3 mph (North)    
Max Wind Speed 8 mph    
Max Gust Speed -    
Visibility 7 miles    
Events Rain    
Averages and records for this station are not official NWS values.
T = Trace of Precipitation, MM = Missing Value Source: NWS Daily Summary

Daily Weather History Graph

Daily Weather History Graph

Search for Another Location

Airport:

Trip Planner

Search our weather history database for the weather conditions in past years. The results will help you decide how hot, cold, wet, or windy it might be!

Date:

Astronomy

Feb. 13, 2013 Rise Set
Actual Time 7:04 AM EST 5:51 PM EST
Civil Twilight 6:38 AM EST 6:18 PM EST
Nautical Twilight 6:07 AM EST 6:49 PM EST
Astronomical Twilight 5:37 AM EST 7:19 PM EST
Moon 8:39 AM EST (2/13) 9:45 PM EST (2/13)
Length of Visible Light 11h 40m
Length of Day
10h 46m
Waxing Crescent, 13% of the Moon is Illuminated
Feb 13
Waxing Crescent
Feb 17
First Quarter
Feb 25
Full
Mar 4
Last Quarter
Mar 11
New

Hourly Weather History & Observations

Time (EST) Temp. Windchill Dew Point Humidity Pressure Visibility Wind Dir Wind Speed Gust Speed Precip Events Conditions
12:15 AM 46.4 °F 44.3 °F 23.0 °F 40% 29.92 in 10.0 mi SW 4.6 mph - N/A   Scattered Clouds
12:35 AM 48.2 °F - 21.2 °F 34% 29.91 in 10.0 mi WSW 3.5 mph - N/A   Mostly Cloudy
12:55 AM 48.2 °F - 21.2 °F 34% 29.90 in 10.0 mi WSW 3.5 mph - N/A   Mostly Cloudy
1:15 AM 44.6 °F - 26.6 °F 49% 29.88 in 10.0 mi Calm Calm - N/A   Overcast
1:35 AM 44.6 °F - 26.6 °F 49% 29.87 in 10.0 mi Calm Calm - N/A   Overcast
1:55 AM 46.4 °F 45.2 °F 24.8 °F 43% 29.89 in 10.0 mi SW 3.5 mph - N/A   Overcast
2:15 AM 48.2 °F - 24.8 °F 40% 29.88 in 10.0 mi SW 4.6 mph - N/A   Overcast
2:35 AM 48.2 °F - 24.8 °F 40% 29.85 in 10.0 mi Calm Calm - N/A   Overcast
2:55 AM 48.2 °F - 28.4 °F 46% 29.86 in 10.0 mi SW 4.6 mph - N/A   Overcast
3:15 AM 48.2 °F - 30.2 °F 50% 29.86 in 10.0 mi Calm Calm - N/A   Overcast
3:35 AM 50.0 °F - 30.2 °F 47% 29.85 in 10.0 mi Calm Calm - N/A   Overcast
3:55 AM 50.0 °F - 30.2 °F 47% 29.84 in 10.0 mi Calm Calm - N/A   Overcast
4:15 AM 48.2 °F - 30.2 °F 50% 29.83 in 10.0 mi Calm Calm - N/A   Overcast
4:35 AM 48.2 °F - 32.0 °F 54% 29.81 in 10.0 mi Calm Calm - N/A   Overcast
4:55 AM 48.2 °F - 32.0 °F 54% 29.81 in 10.0 mi Calm Calm - N/A   Overcast
5:15 AM 46.4 °F - 33.8 °F 62% 29.80 in 10.0 mi Calm Calm - N/A   Overcast
5:35 AM 48.2 °F - 32.0 °F 54% 29.80 in 10.0 mi North 3.5 mph - N/A   Overcast
5:55 AM 46.4 °F 45.2 °F 33.8 °F 62% 29.80 in 10.0 mi North 3.5 mph - N/A   Overcast
6:15 AM 48.2 °F - 30.2 °F 50% 29.79 in 10.0 mi North 3.5 mph - N/A   Overcast
6:35 AM 46.4 °F 42.4 °F 26.6 °F 46% 29.81 in 10.0 mi NNE 8.1 mph - N/A   Overcast
6:55 AM 46.4 °F 43.5 °F 26.6 °F 46% 29.81 in 10.0 mi NNE 5.8 mph - N/A   Overcast
7:15 AM 44.6 °F 41.4 °F 28.4 °F 53% 29.81 in 10.0 mi NNE 5.8 mph - N/A   Light Drizzle
7:35 AM 44.6 °F 41.4 °F 26.6 °F 49% 29.81 in 10.0 mi NNE 5.8 mph - N/A   Mostly Cloudy
7:55 AM 44.6 °F 40.7 °F 26.6 °F 49% 29.82 in 10.0 mi NNE 6.9 mph - N/A Rain Light Rain
8:15 AM 44.6 °F 40.7 °F 28.4 °F 53% 29.81 in 10.0 mi NNE 6.9 mph - N/A   Mostly Cloudy
8:35 AM 42.8 °F 38.0 °F 28.4 °F 57% 29.82 in 10.0 mi NNE 8.1 mph - N/A   Scattered Clouds
8:55 AM 42.8 °F 38.6 °F 28.4 °F 57% 29.82 in 10.0 mi NNE 6.9 mph - N/A   Light Drizzle
9:15 AM 42.8 °F 41.1 °F 28.4 °F 57% 29.83 in 10.0 mi NE 3.5 mph - N/A   Mostly Cloudy
9:35 AM 42.8 °F 41.1 °F 28.4 °F 57% 29.83 in 10.0 mi NNE 3.5 mph - N/A   Drizzle
9:55 AM 42.8 °F 41.1 °F 28.4 °F 57% 29.82 in 10.0 mi NNE 3.5 mph - N/A Rain Rain
10:15 AM 42.8 °F 41.1 °F 30.2 °F 61% 29.80 in 10.0 mi North 3.5 mph - N/A Rain Light Rain
10:35 AM 42.8 °F 40.1 °F 30.2 °F 61% 29.80 in 10.0 mi NNE 4.6 mph - N/A   Overcast
10:55 AM 42.8 °F 41.1 °F 30.2 °F 61% 29.78 in 10.0 mi North 3.5 mph - N/A   Overcast
11:15 AM 44.6 °F 42.2 °F 30.2 °F 57% 29.78 in 10.0 mi NNE 4.6 mph - N/A   Overcast
11:35 AM 44.6 °F - 30.2 °F 57% 29.77 in 10.0 mi Calm Calm - N/A   Overcast
11:55 AM 44.6 °F - 32.0 °F 61% 29.76 in 10.0 mi Calm Calm - N/A   Drizzle
12:15 PM 44.6 °F 43.1 °F 33.8 °F 66% 29.73 in 5.0 mi ENE 3.5 mph - N/A   Light Drizzle
12:35 PM 44.6 °F - 33.8 °F 66% 29.73 in 10.0 mi Calm Calm - N/A   Overcast
12:55 PM 44.6 °F - 35.6 °F 71% 29.70 in 7.0 mi Calm Calm - N/A Rain Light Rain
1:15 PM 44.6 °F - 35.6 °F 71% 29.69 in 7.0 mi Calm Calm - N/A   Overcast
1:35 PM 44.6 °F 43.1 °F 35.6 °F 71% 29.66 in 7.0 mi NNE 3.5 mph - N/A   Overcast
1:55 PM 42.8 °F 41.1 °F 39.2 °F 87% 29.65 in 3.0 mi NNE 3.5 mph - N/A   Overcast
2:15 PM 42.8 °F 41.1 °F 39.2 °F 87% 29.64 in 4.0 mi NNE 3.5 mph - N/A   Overcast
2:35 PM 42.8 °F 41.1 °F 39.2 °F 87% 29.64 in 3.0 mi North 3.5 mph - N/A   Overcast
2:55 PM 42.8 °F 41.1 °F 39.2 °F 87% 29.63 in 1.8 mi NNE 3.5 mph - N/A   Drizzle
3:15 PM 42.8 °F - 39.2 °F 87% 29.64 in 1.5 mi Calm Calm - N/A   Drizzle
3:35 PM 42.8 °F 40.1 °F 41.0 °F 93% 29.63 in 1.5 mi NNE 4.6 mph - N/A   Drizzle
3:55 PM 42.8 °F 40.1 °F 41.0 °F 93% 29.63 in 1.8 mi NNE 4.6 mph - N/A   Light Drizzle
4:15 PM 42.8 °F 39.3 °F 39.2 °F 87% 29.63 in 2.0 mi NNE 5.8 mph - 0.01 in Rain Light Rain
4:35 PM 42.8 °F 41.1 °F 39.2 °F 87% 29.63 in 1.2 mi North 3.5 mph - 0.01 in   Drizzle
4:55 PM 41.0 °F 39.0 °F 39.2 °F 93% 29.62 in 1.2 mi North 3.5 mph - N/A   Light Drizzle
5:15 PM 41.0 °F 39.0 °F 39.2 °F 93% 29.64 in 1.2 mi NNW 3.5 mph - N/A   Overcast
5:35 PM 41.0 °F - 39.2 °F 93% 29.64 in 2.0 mi Calm Calm - 0.01 in Rain Light Rain
5:55 PM 41.0 °F - 39.2 °F 93% 29.64 in 2.5 mi Calm Calm - 0.01 in   Overcast
6:15 PM 41.0 °F - 39.2 °F 93% 29.65 in 2.5 mi Calm Calm - 0.01 in   Overcast
6:35 PM 41.0 °F - 39.2 °F 93% 29.64 in 2.5 mi Calm Calm - 0.01 in   Overcast
6:55 PM 41.0 °F - 39.2 °F 93% 29.65 in 4.0 mi Calm Calm - N/A   Overcast
7:15 PM 41.0 °F - 39.2 °F 93% 29.66 in 5.0 mi Calm Calm - N/A   Overcast
7:35 PM 41.0 °F - 39.2 °F 93% 29.67 in 5.0 mi Calm Calm - N/A   Overcast
7:55 PM 41.0 °F - 39.2 °F 93% 29.68 in 3.0 mi Calm Calm - N/A   Drizzle
8:15 PM 41.0 °F - 39.2 °F 93% 29.69 in 3.0 mi Calm Calm - N/A   Drizzle
8:35 PM 39.2 °F 35.9 °F 39.2 °F 100% 29.71 in 2.5 mi NNW 4.6 mph - 0.02 in Rain Rain
8:55 PM 39.2 °F 35.9 °F 39.2 °F 100% 29.71 in 5.0 mi NNW 4.6 mph - N/A Rain Rain
9:15 PM 39.2 °F 37.0 °F 37.4 °F 93% 29.72 in 7.0 mi North 3.5 mph - N/A   Overcast
9:35 PM 39.2 °F - 37.4 °F 93% 29.73 in 10.0 mi Calm Calm - N/A   Overcast
9:55 PM 39.2 °F - 37.4 °F 93% 29.73 in 7.0 mi Calm Calm - N/A   Overcast
10:15 PM 39.2 °F - 37.4 °F 93% 29.74 in 5.0 mi Calm Calm - N/A   Mostly Cloudy
10:35 PM 37.4 °F - 35.6 °F 93% 29.75 in 4.0 mi Calm Calm - N/A   Scattered Clouds
10:55 PM 35.6 °F - 35.6 °F 100% 29.75 in 2.5 mi Calm Calm - N/A   Scattered Clouds
11:15 PM 35.6 °F - 33.8 °F 93% 29.77 in 1.8 mi Calm Calm - N/A   Mostly Cloudy
11:35 PM 37.4 °F - 35.6 °F 93% 29.78 in 3.0 mi Calm Calm - N/A   Scattered Clouds
11:55 PM 37.4 °F - 35.6 °F 93% 29.79 in 4.0 mi Calm Calm - 0.01 in   Scattered Clouds